Skip Page Navigation
NASA JPL Caltech
NASA Logo - Jet Propulsion Laboratory + View the NASA Portal
+ Near-Earth Object (NEO) Program
Search JPL
JPL Home Earth Solar System Stars & Galaxies Technology
JPL Solar System Dynamics
BODIES ORBITS EPHEMERIDES TOOLS PHYSICAL DATA DISCOVERY FAQ SITE MAP
JPL Small-Body Database Browser
Search: [ help ]  
332944 (2011 DK24)
Classification: Main-belt Asteroid          SPK-ID: 2332944
Ephemeris | Orbit Diagram | Orbital Elements | Physical Parameters | Discovery Circumstances ]

[ hide orbit diagram ]
Orbit Diagram
Note: Make sure you have Java enabled on your browser to see the applet. This applet is provided as a 3D orbit visualization tool. The applet was implemented using 2-body methods, and hence should not be used for determining accurate long-term trajectories (over several years or decades) or planetary encounter circumstances. For accurate long-term ephemerides, please instead use our Horizons system.
Orbit Viewer

Additional Notes: the orbits shown in the applet are color coded. The planets are white lines, and the asteroid/comet is a blue line. The bright white line indicates the portion of the orbit that is above the ecliptic plane, and the darker portion is below the ecliptic plane. Likewise for the asteroid/comet orbit, the light blue indicates the portion above the ecliptic plane, and the dark blue the portion below the ecliptic plane.

Orbit Viewer applet originally written and kindly provided by Osamu Ajiki (AstroArts), and further modified by Ron Baalke (JPL).


Orbital Elements at Epoch 2456400.5 (2013-Apr-18.0) TDB
Reference: MPO233030 (heliocentric ecliptic J2000)
 Element Value Uncertainty (1-sigma)   Units 
e 0.0815995 n/a  
a 2.7002179 n/a AU
q 2.4798815 n/a AU
i 6.81117 n/a deg
node 73.80418 n/a deg
peri 26.56364 n/a deg
M 212.21965 n/a deg
tp 2457065.7897659
(2015-Feb-12.28976590)
n/a JED
period 1620.6776864
4.44
n/a
n/a
d
yr
n 0.22212930 n/a deg/d
Q 2.9205543 n/a AU
  Orbit Determination Parameters
   # obs. used (total)      67  
   first obs. used      2005-??-??  
   last obs. used      2012-06-18  
   # oppositions      4  
   planetary ephem.      DE403  
   condition code      1  
   fit RMS      0.48  
   data source      MPC:mpu  
   producer      MPCS  

Additional Information
 T_jup = 3.353 

Ephemeris | Orbit Diagram | Orbital Elements | Physical Parameters | Discovery Circumstances ]

Physical Parameter Table
Parameter Symbol Value Units Sigma Reference Notes
absolute magnitude H 16.5 mag n/a MPO233030  

332944 (2011 DK24)          Discovered 2005-Nov-30 by Spacewatch at Kitt Peak (G98)
Reference: 20120703/Numbers.arcLast Updated: 2012-07-09

Alternate Designations
 2011 DK24 = 2005 WP110 = 2009 UX2 
Ephemeris | Orbit Diagram | Orbital Elements | Physical Parameters | Discovery Circumstances ]
ABOUT SSD CREDITS/AWARDS PRIVACY/COPYRIGHT GLOSSARY LINKS
FirstGov 2013-May-23 04:27 UT
(server date/time)  
NASA Home Page
Site Manager:   Donald K. Yeomans
Webmaster  Alan B. Chamberlin